Time,TemperatureF,DewpointF,PressureIn,WindDirection,WindDirectionDegrees,WindSpeedMPH,WindSpeedGustMPH,Humidity,HourlyPrecipIn,Conditions,Clouds,dailyrainin,SolarRadiationWatts/m^2,SoftwareType,DateUTC
2013-02-20 00:00:00,34.4,25.3,29.77,WNW,295,10.0,16.0,69,0.00,RA,,0.00,0.0,WeatherDisplay:10.37,2013-02-20 05:00:00,
2013-02-20 00:04:00,34.4,24.9,29.77,WNW,297,16.1,16.1,68,0.00,RA,,0.00,0.0,WeatherDisplay:10.37,2013-02-20 05:04:00,
2013-02-20 00:09:00,34.2,24.4,29.78,WNW,296,13.8,13.8,67,0.00,RA,,0.00,0.0,WeatherDisplay:10.37,2013-02-20 05:09:00,
2013-02-20 00:15:00,34.0,24.2,29.78,West,275,11.5,11.5,67,0.00,RA,,0.00,0.0,WeatherDisplay:10.37,2013-02-20 05:15:00,
2013-02-20 00:20:00,34.1,23.9,29.78,WNW,298,15.0,15.0,66,0.00,RA,,0.00,0.0,WeatherDisplay:10.37,2013-02-20 05:20:00,
2013-02-20 00:25:00,34.1,23.2,29.78,West,276,11.5,11.5,64,0.00,RA,,0.00,0.0,WeatherDisplay:10.37,2013-02-20 05:25:00,
2013-02-20 00:30:00,34.0,23.1,29.78,WNW,291,13.8,13.8,64,0.00,RA,,0.00,0.0,WeatherDisplay:10.37,2013-02-20 05:30:00,
2013-02-20 00:35:00,33.9,23.0,29.78,WNW,290,14.0,14.0,64,0.00,RA,,0.00,0.0,WeatherDisplay:10.37,2013-02-20 05:35:00,
2013-02-20 00:40:00,33.7,22.8,29.78,WNW,286,11.5,11.5,64,0.00,RA,,0.00,0.0,WeatherDisplay:10.37,2013-02-20 05:40:00,
2013-02-20 00:45:00,33.4,22.9,29.78,WNW,300,8.1,8.1,65,0.00,RA,,0.00,0.0,WeatherDisplay:10.37,2013-02-20 05:45:00,
2013-02-20 00:50:00,33.3,22.4,29.79,WNW,286,21.9,21.9,64,0.00,RA,,0.00,0.0,WeatherDisplay:10.37,2013-02-20 05:50:00,
2013-02-20 00:55:00,33.2,22.0,29.79,WNW,296,13.8,13.8,63,0.00,RA,,0.00,0.0,WeatherDisplay:10.37,2013-02-20 05:55:00,
2013-02-20 01:00:00,32.9,22.0,29.79,WNW,284,11.5,11.5,64,0.00,RA,,0.00,0.0,WeatherDisplay:10.37,2013-02-20 06:00:00,
2013-02-20 01:05:00,32.6,22.5,29.79,WNW,287,8.1,8.1,66,0.00,CLR,,0.00,0.0,WeatherDisplay:10.37,2013-02-20 06:05:00,
2013-02-20 01:10:00,32.3,22.6,29.79,WNW,292,8.1,8.1,67,0.00,CLR,,0.00,0.0,WeatherDisplay:10.37,2013-02-20 06:10:00,
2013-02-20 01:15:00,32.0,22.6,29.79,West,281,9.2,9.2,68,0.00,CLR,,0.00,0.0,WeatherDisplay:10.37,2013-02-20 06:15:00,
2013-02-20 01:20:00,31.9,22.5,29.80,WNW,300,11.5,11.5,68,0.00,CLR,,0.00,0.0,WeatherDisplay:10.37,2013-02-20 06:20:00,
2013-02-20 01:25:00,31.8,22.4,29.80,WNW,290,10.4,10.4,68,0.00,CLR,,0.00,0.0,WeatherDisplay:10.37,2013-02-20 06:25:00,
2013-02-20 01:30:00,31.7,22.3,29.80,WNW,299,12.7,12.7,68,0.00,CLR,,0.00,0.0,WeatherDisplay:10.37,2013-02-20 06:30:00,
2013-02-20 01:35:00,31.6,22.2,29.80,WNW,295,8.1,8.1,68,0.00,CLR,,0.00,0.0,WeatherDisplay:10.37,2013-02-20 06:35:00,
2013-02-20 01:40:00,31.5,21.8,29.80,WNW,293,11.5,11.5,67,0.00,CLR,,0.00,0.0,WeatherDisplay:10.37,2013-02-20 06:40:00,
2013-02-20 01:45:00,31.5,21.4,29.80,WNW,292,10.4,10.4,66,0.00,CLR,,0.00,0.0,WeatherDisplay:10.37,2013-02-20 06:45:00,
2013-02-20 01:50:00,31.4,21.3,29.80,WNW,291,10.4,11.0,66,0.00,CLR,,0.00,0.0,WeatherDisplay:10.37,2013-02-20 06:50:00,
2013-02-20 01:55:00,31.4,20.6,29.80,WNW,294,13.8,13.8,64,0.00,CLR,,0.00,0.0,WeatherDisplay:10.37,2013-02-20 06:55:00,
2013-02-20 02:00:00,31.4,20.6,29.80,WNW,300,9.2,9.2,64,0.00,CLR,,0.00,0.0,WeatherDisplay:10.37,2013-02-20 07:00:00,
2013-02-20 02:05:00,31.2,20.4,29.80,WNW,298,13.8,13.8,64,0.00,CLR,,0.00,0.0,WeatherDisplay:10.37,2013-02-20 07:05:00,
2013-02-20 02:10:00,31.2,20.4,29.80,WNW,300,11.5,11.5,64,0.00,CLR,,0.00,0.0,WeatherDisplay:10.37,2013-02-20 07:10:00,
2013-02-20 02:15:00,31.1,20.3,29.81,WNW,303,10.4,10.4,64,0.00,CLR,,0.00,0.0,WeatherDisplay:10.37,2013-02-20 07:15:00,
2013-02-20 02:20:00,31.1,20.3,29.81,WNW,302,10.0,10.0,64,0.00,CLR,,0.00,0.0,WeatherDisplay:10.37,2013-02-20 07:20:00,
2013-02-20 02:25:00,31.0,20.2,29.81,WNW,286,10.4,10.4,64,0.00,CLR,,0.00,0.0,WeatherDisplay:10.37,2013-02-20 07:25:00,
2013-02-20 02:30:00,30.9,20.5,29.81,WNW,284,18.4,18.4,65,0.00,CLR,,0.00,0.0,WeatherDisplay:10.37,2013-02-20 07:30:00,
2013-02-20 02:35:00,31.0,20.2,29.81,WNW,292,16.1,16.1,64,0.00,CLR,,0.00,0.0,WeatherDisplay:10.37,2013-02-20 07:35:00,
2013-02-20 02:40:00,30.9,20.1,29.81,WSW,255,16.1,16.1,64,0.00,CLR,,0.00,0.0,WeatherDisplay:10.37,2013-02-20 07:40:00,
2013-02-20 02:45:00,30.8,20.0,29.82,NW,309,13.8,13.8,64,0.00,CLR,,0.00,0.0,WeatherDisplay:10.37,2013-02-20 07:45:00,
2013-02-20 02:50:00,30.7,19.6,29.82,WNW,292,16.1,16.1,63,0.00,CLR,,0.00,0.0,WeatherDisplay:10.37,2013-02-20 07:50:00,
2013-02-20 02:55:00,30.5,19.4,29.82,WNW,291,12.7,12.7,63,0.00,CLR,,0.00,0.0,WeatherDisplay:10.37,2013-02-20 07:55:00,
2013-02-20 03:00:00,30.2,18.7,29.82,West,269,13.8,13.8,62,0.00,CLR,,0.00,0.0,WeatherDisplay:10.37,2013-02-20 08:00:00,
2013-02-20 03:05:00,30.1,18.3,29.81,NW,306,16.0,16.0,61,0.00,CLR,,0.00,0.0,WeatherDisplay:10.37,2013-02-20 08:05:00,
2013-02-20 03:10:00,30.1,17.9,29.81,NW,309,19.6,19.6,60,0.00,CLR,,0.00,0.0,WeatherDisplay:10.37,2013-02-20 08:10:00,
2013-02-20 03:15:00,30.0,17.8,29.81,WNW,303,17.3,17.3,60,0.00,CLR,,0.00,0.0,WeatherDisplay:10.37,2013-02-20 08:15:00,
2013-02-20 03:20:00,29.9,17.7,29.81,West,277,13.8,13.8,60,0.00,CLR,,0.00,0.0,WeatherDisplay:10.37,2013-02-20 08:20:00,
2013-02-20 03:25:00,29.7,17.9,29.81,West,272,10.4,10.4,61,0.00,CLR,,0.00,0.0,WeatherDisplay:10.37,2013-02-20 08:25:00,
2013-02-20 03:30:00,29.5,18.1,29.82,WNW,285,5.8,5.8,62,0.00,CLR,,0.00,0.0,WeatherDisplay:10.37,2013-02-20 08:30:00,
2013-02-20 03:35:00,29.4,18.0,29.82,West,272,7.0,7.0,62,0.00,CLR,,0.00,0.0,WeatherDisplay:10.37,2013-02-20 08:35:00,
2013-02-20 03:40:00,29.3,17.9,29.82,WNW,284,6.0,6.0,62,0.00,CLR,,0.00,0.0,WeatherDisplay:10.37,2013-02-20 08:40:00,
2013-02-20 03:45:00,29.1,17.7,29.83,WNW,296,8.0,8.0,62,0.00,CLR,,0.00,0.0,WeatherDisplay:10.37,2013-02-20 08:45:00,
2013-02-20 03:50:00,29.0,18.0,29.82,NW,310,9.2,9.2,63,0.00,CLR,,0.00,0.0,WeatherDisplay:10.37,2013-02-20 08:50:00,
2013-02-20 03:55:00,28.9,17.9,29.82,NW,304,9.2,9.2,63,0.00,CLR,,0.00,0.0,WeatherDisplay:10.37,2013-02-20 08:55:00,
2013-02-20 04:00:00,28.8,17.8,29.82,WNW,286,9.2,9.2,63,0.00,CLR,,0.00,0.0,WeatherDisplay:10.37,2013-02-20 09:00:00,
2013-02-20 04:05:00,28.7,18.1,29.81,WNW,294,9.2,9.2,64,0.00,CLR,,0.00,0.0,WeatherDisplay:10.37,2013-02-20 09:05:00,
2013-02-20 04:10:00,28.7,18.1,29.82,West,272,6.9,6.9,64,0.00,CLR,,0.00,0.0,WeatherDisplay:10.37,2013-02-20 09:10:00,
2013-02-20 04:15:00,28.6,18.3,29.82,West,276,4.6,4.6,65,0.00,CLR,,0.00,0.0,WeatherDisplay:10.37,2013-02-20 09:15:00,
2013-02-20 04:20:00,28.5,18.2,29.82,West,279,3.5,3.5,65,0.00,CLR,,0.00,0.0,WeatherDisplay:10.37,2013-02-20 09:20:00,
2013-02-20 04:25:00,28.5,18.6,29.83,WNW,288,5.8,5.8,66,0.00,CLR,,0.00,0.0,WeatherDisplay:10.37,2013-02-20 09:25:00,
2013-02-20 04:30:00,28.7,18.8,29.83,WNW,297,4.6,4.6,66,0.00,CLR,,0.00,0.0,WeatherDisplay:10.37,2013-02-20 09:30:00,
2013-02-20 04:35:00,28.8,18.9,29.83,WNW,292,3.5,3.5,66,0.00,CLR,,0.00,0.0,WeatherDisplay:10.37,2013-02-20 09:35:00,
2013-02-20 04:40:00,28.8,18.9,29.83,NW,304,3.5,3.5,66,0.00,CLR,,0.00,0.0,WeatherDisplay:10.37,2013-02-20 09:40:00,
2013-02-20 04:45:00,28.9,19.3,29.83,WNW,294,4.6,4.6,67,0.00,CLR,,0.00,0.0,WeatherDisplay:10.37,2013-02-20 09:45:00,
2013-02-20 04:50:00,29.0,19.1,29.83,WNW,295,3.0,8.0,66,0.00,CLR,,0.00,0.0,WeatherDisplay:10.37,2013-02-20 09:50:00,
2013-02-20 04:55:00,29.1,19.5,29.84,WNW,287,6.0,6.0,67,0.00,CLR,,0.00,0.0,WeatherDisplay:10.37,2013-02-20 09:55:00,
2013-02-20 05:00:00,29.1,19.2,29.83,West,273,10.4,10.4,66,0.00,OVC,,0.00,0.0,WeatherDisplay:10.37,2013-02-20 10:00:00,
2013-02-20 05:05:00,29.1,19.2,29.84,WNW,291,6.9,6.9,66,0.00,OVC,,0.00,0.0,WeatherDisplay:10.37,2013-02-20 10:05:00,
2013-02-20 05:10:00,29.0,19.4,29.84,WNW,302,9.2,9.2,67,0.00,OVC,,0.00,0.0,WeatherDisplay:10.37,2013-02-20 10:10:00,
2013-02-20 05:15:00,28.9,19.0,29.84,WNW,286,11.5,11.5,66,0.00,OVC,,0.00,0.0,WeatherDisplay:10.37,2013-02-20 10:15:00,
2013-02-20 05:20:00,28.8,18.5,29.84,NW,309,19.6,19.6,65,0.00,OVC,,0.00,0.0,WeatherDisplay:10.37,2013-02-20 10:20:00,
2013-02-20 05:25:00,28.8,18.5,29.85,NW,312,9.2,9.2,65,0.00,OVC,,0.00,0.0,WeatherDisplay:10.37,2013-02-20 10:25:00,
2013-02-20 05:30:00,28.8,18.1,29.85,WNW,288,11.5,11.5,64,0.00,OVC,,0.00,0.0,WeatherDisplay:10.37,2013-02-20 10:30:00,
2013-02-20 05:35:00,28.7,18.1,29.85,WNW,289,10.4,10.4,64,0.00,OVC,,0.00,0.0,WeatherDisplay:10.37,2013-02-20 10:35:00,
2013-02-20 05:40:00,28.6,17.6,29.85,NW,317,13.8,13.8,63,0.00,OVC,,0.00,0.0,WeatherDisplay:10.37,2013-02-20 10:40:00,
2013-02-20 05:45:00,28.5,16.7,29.85,NW,310,17.3,17.3,61,0.00,OVC,,0.00,0.0,WeatherDisplay:10.37,2013-02-20 10:45:00,
2013-02-20 05:50:00,28.4,16.3,29.85,West,278,20.7,20.7,60,0.00,OVC,,0.00,0.0,WeatherDisplay:10.37,2013-02-20 10:50:00,
2013-02-20 05:55:00,28.4,15.9,29.86,West,266,16.1,16.1,59,0.00,OVC,,0.00,0.0,WeatherDisplay:10.37,2013-02-20 10:55:00,
2013-02-20 06:00:00,28.2,15.7,29.86,WNW,288,10.0,21.0,59,0.00,CLR,,0.00,0.0,WeatherDisplay:10.37,2013-02-20 11:00:00,
2013-02-20 06:05:00,28.1,15.2,29.86,WNW,291,12.7,12.7,58,0.00,CLR,,0.00,0.0,WeatherDisplay:10.37,2013-02-20 11:05:00,
2013-02-20 06:10:00,28.0,15.5,29.87,WNW,300,19.6,19.6,59,0.00,CLR,,0.00,0.0,WeatherDisplay:10.37,2013-02-20 11:10:00,
2013-02-20 06:15:00,28.0,15.5,29.87,WNW,285,12.7,12.7,59,0.00,CLR,,0.00,0.0,WeatherDisplay:10.37,2013-02-20 11:15:00,
2013-02-20 06:20:00,27.9,15.4,29.87,WNW,293,16.1,16.1,59,0.00,CLR,,0.00,0.0,WeatherDisplay:10.37,2013-02-20 11:20:00,
2013-02-20 06:25:00,27.7,15.2,29.88,West,274,19.6,19.6,59,0.00,CLR,,0.00,0.0,WeatherDisplay:10.37,2013-02-20 11:25:00,
2013-02-20 06:30:00,27.7,15.2,29.88,WNW,292,18.4,18.4,59,0.00,CLR,,0.00,0.0,WeatherDisplay:10.37,2013-02-20 11:30:00,
2013-02-20 06:35:00,27.7,15.6,29.88,WNW,302,15.0,15.0,60,0.00,CLR,,0.00,0.0,WeatherDisplay:10.37,2013-02-20 11:35:00,
2013-02-20 06:40:00,27.6,15.5,29.88,WNW,287,17.3,17.3,60,0.00,CLR,,0.00,0.0,WeatherDisplay:10.37,2013-02-20 11:40:00,
2013-02-20 06:45:00,27.6,15.5,29.89,WNW,284,11.5,11.5,60,0.00,CLR,,0.00,0.0,WeatherDisplay:10.37,2013-02-20 11:45:00,
2013-02-20 06:50:00,27.5,15.4,29.89,West,281,15.0,15.0,60,0.00,CLR,,0.00,0.0,WeatherDisplay:10.37,2013-02-20 11:50:00,
2013-02-20 06:55:00,27.4,15.7,29.89,NW,317,17.3,17.3,61,0.00,CLR,,0.00,0.0,WeatherDisplay:10.37,2013-02-20 11:55:00,
2013-02-20 07:00:00,27.3,15.6,29.89,NW,306,15.0,15.0,61,0.00,BKN,,0.00,5.0,WeatherDisplay:10.37,2013-02-20 12:00:00,
2013-02-20 07:05:00,27.2,15.9,29.89,NW,306,15.0,15.0,62,0.00,BKN,,0.00,7.0,WeatherDisplay:10.37,2013-02-20 12:05:00,
2013-02-20 07:10:00,27.2,15.9,29.89,WNW,294,17.3,17.3,62,0.00,BKN,,0.00,9.0,WeatherDisplay:10.37,2013-02-20 12:10:00,
2013-02-20 07:15:00,27.2,15.9,29.89,WNW,292,17.3,17.3,62,0.00,BKN,,0.00,11.0,WeatherDisplay:10.37,2013-02-20 12:15:00,
2013-02-20 07:20:00,27.2,15.5,29.89,WNW,292,16.1,16.1,61,0.00,BKN,,0.00,18.0,WeatherDisplay:10.37,2013-02-20 12:20:00,
2013-02-20 07:25:00,27.1,15.8,29.90,West,276,17.3,17.3,62,0.00,BKN,,0.00,21.0,WeatherDisplay:10.37,2013-02-20 12:25:00,
2013-02-20 07:30:00,27.0,16.1,29.91,WNW,294,12.7,12.7,63,0.00,BKN,,0.00,26.0,WeatherDisplay:10.37,2013-02-20 12:30:00,
2013-02-20 07:35:00,27.0,16.1,29.91,WNW,297,18.4,18.4,63,0.00,BKN,,0.00,30.0,WeatherDisplay:10.37,2013-02-20 12:35:00,
2013-02-20 07:40:00,27.0,16.4,29.91,WNW,302,17.3,17.3,64,0.00,BKN,,0.00,33.0,WeatherDisplay:10.37,2013-02-20 12:40:00,
2013-02-20 07:45:00,26.9,16.3,29.91,WNW,294,16.1,16.1,64,0.00,BKN,,0.00,49.0,WeatherDisplay:10.37,2013-02-20 12:45:00,
2013-02-20 07:50:00,26.8,16.2,29.92,NW,304,15.0,15.0,64,0.00,BKN,,0.00,49.0,WeatherDisplay:10.37,2013-02-20 12:50:00,
2013-02-20 07:55:00,26.7,16.1,29.92,NW,311,17.3,17.3,64,0.00,BKN,,0.00,54.0,WeatherDisplay:10.37,2013-02-20 12:55:00,
2013-02-20 08:00:00,26.7,16.5,29.92,NW,317,17.3,17.3,65,0.00,OVC,,0.00,58.0,WeatherDisplay:10.37,2013-02-20 13:00:00,
2013-02-20 08:05:00,26.7,16.5,29.92,NW,319,15.0,15.0,65,0.00,OVC,,0.00,105.0,WeatherDisplay:10.37,2013-02-20 13:05:00,
2013-02-20 08:10:00,26.6,16.8,29.92,West,279,17.3,17.3,66,0.00,OVC,,0.00,65.0,WeatherDisplay:10.37,2013-02-20 13:10:00,
2013-02-20 08:15:00,26.5,17.0,29.92,WNW,292,13.8,13.8,67,0.00,OVC,,0.00,181.0,WeatherDisplay:10.37,2013-02-20 13:15:00,
2013-02-20 08:20:00,26.6,16.8,29.92,WNW,297,19.6,19.6,66,0.00,OVC,,0.00,134.0,WeatherDisplay:10.37,2013-02-20 13:20:00,
2013-02-20 08:25:00,26.7,16.5,29.92,WNW,292,19.6,19.6,65,0.00,OVC,,0.00,116.0,WeatherDisplay:10.37,2013-02-20 13:25:00,
2013-02-20 08:30:00,26.7,16.5,29.92,WSW,243,17.3,17.3,65,0.00,OVC,,0.00,125.0,WeatherDisplay:10.37,2013-02-20 13:30:00,
2013-02-20 08:35:00,26.9,16.3,29.92,WNW,299,16.1,16.1,64,0.00,OVC,,0.00,128.0,WeatherDisplay:10.37,2013-02-20 13:35:00,
2013-02-20 08:40:00,26.9,16.3,29.93,NNW,337,12.7,12.7,64,0.00,OVC,,0.00,105.0,WeatherDisplay:10.37,2013-02-20 13:40:00,
2013-02-20 08:45:00,26.7,16.1,29.93,WNW,302,19.6,19.6,64,0.00,OVC,,0.00,116.0,WeatherDisplay:10.37,2013-02-20 13:45:00,
2013-02-20 08:50:00,26.5,16.0,29.93,NW,313,23.0,23.0,64,0.00,OVC,,0.00,118.0,WeatherDisplay:10.37,2013-02-20 13:50:00,
2013-02-20 08:55:00,26.3,15.8,29.93,NW,308,19.0,19.0,64,0.00,OVC,,0.00,162.0,WeatherDisplay:10.37,2013-02-20 13:55:00,
2013-02-20 09:00:00,26.3,16.1,29.94,WNW,296,17.3,17.3,65,0.00,OVC,,0.00,172.0,WeatherDisplay:10.37,2013-02-20 14:00:00,
2013-02-20 09:05:00,26.2,16.0,29.94,WNW,297,17.3,17.3,65,0.00,OVC,,0.00,206.0,WeatherDisplay:10.37,2013-02-20 14:05:00,
2013-02-20 09:10:00,26.2,16.0,29.94,WNW,288,19.6,19.6,65,0.00,OVC,,0.00,209.0,WeatherDisplay:10.37,2013-02-20 14:10:00,
2013-02-20 09:15:00,26.1,15.2,29.94,WNW,290,19.6,19.6,63,0.00,OVC,,0.00,195.0,WeatherDisplay:10.37,2013-02-20 14:15:00,
2013-02-20 09:20:00,26.0,14.8,29.94,West,259,20.7,20.7,62,0.00,OVC,,0.00,207.0,WeatherDisplay:10.37,2013-02-20 14:20:00,
2013-02-20 09:25:00,26.1,14.8,29.94,WNW,292,20.7,20.7,62,0.00,OVC,,0.00,352.0,WeatherDisplay:10.37,2013-02-20 14:25:00,
2013-02-20 09:30:00,26.2,14.6,29.94,WNW,292,17.3,17.3,61,0.00,OVC,,0.00,396.0,WeatherDisplay:10.37,2013-02-20 14:30:00,
2013-02-20 09:35:00,26.7,15.0,29.94,WNW,302,17.3,17.3,61,0.00,OVC,,0.00,427.0,WeatherDisplay:10.37,2013-02-20 14:35:00,
2013-02-20 09:40:00,26.7,14.7,29.94,WNW,298,20.7,20.7,60,0.00,OVC,,0.00,457.0,WeatherDisplay:10.37,2013-02-20 14:40:00,
2013-02-20 09:45:00,26.8,14.8,29.94,WNW,298,24.2,24.2,60,0.00,OVC,,0.00,220.0,WeatherDisplay:10.37,2013-02-20 14:45:00,
2013-02-20 09:50:00,26.5,14.5,29.94,NW,315,24.2,24.2,60,0.00,OVC,,0.00,283.0,WeatherDisplay:10.37,2013-02-20 14:50:00,
2013-02-20 09:55:00,26.3,14.7,29.94,WNW,293,15.0,15.0,61,0.00,OVC,,0.00,181.0,WeatherDisplay:10.37,2013-02-20 14:55:00,
2013-02-20 10:00:00,26.4,14.8,29.94,West,267,15.0,15.0,61,0.00,OVC,,0.00,195.0,WeatherDisplay:10.37,2013-02-20 15:00:00,
2013-02-20 10:05:00,26.6,14.6,29.94,NNW,331,13.8,13.8,60,0.00,OVC,,0.00,448.0,WeatherDisplay:10.37,2013-02-20 15:05:00,
2013-02-20 10:10:00,26.6,14.6,29.94,NW,312,19.6,19.6,60,0.00,OVC,,0.00,169.0,WeatherDisplay:10.37,2013-02-20 15:10:00,
2013-02-20 10:15:00,26.5,14.9,29.94,WNW,288,9.2,9.2,61,0.00,OVC,,0.00,540.0,WeatherDisplay:10.37,2013-02-20 15:15:00,
2013-02-20 10:20:00,26.9,15.2,29.94,WNW,298,11.5,11.5,61,0.00,OVC,,0.00,554.0,WeatherDisplay:10.37,2013-02-20 15:20:00,
2013-02-20 10:25:00,27.5,15.8,29.94,WNW,295,12.7,12.7,61,0.00,OVC,,0.00,626.0,WeatherDisplay:10.37,2013-02-20 15:25:00,
2013-02-20 10:30:00,28.3,16.6,29.94,West,278,12.7,12.7,61,0.00,OVC,,0.00,605.0,WeatherDisplay:10.37,2013-02-20 15:30:00,
2013-02-20 10:35:00,27.9,15.0,29.94,NW,304,13.8,13.8,58,0.00,OVC,,0.00,148.0,WeatherDisplay:10.37,2013-02-20 15:35:00,
2013-02-20 10:40:00,27.4,14.5,29.94,WNW,286,15.0,15.0,58,0.00,OVC,,0.00,599.0,WeatherDisplay:10.37,2013-02-20 15:40:00,
2013-02-20 10:45:00,28.0,16.3,29.94,West,277,11.5,11.5,61,0.00,OVC,,0.00,621.0,WeatherDisplay:10.37,2013-02-20 15:45:00,
2013-02-20 10:50:00,27.9,15.4,29.94,WNW,303,16.1,16.1,59,0.00,OVC,,0.00,501.0,WeatherDisplay:10.37,2013-02-20 15:50:00,
2013-02-20 10:55:00,27.5,14.2,29.94,WNW,294,23.0,23.0,57,0.00,OVC,,0.00,765.0,WeatherDisplay:10.37,2013-02-20 15:55:00,
2013-02-20 11:00:00,27.8,14.5,29.94,NW,307,24.0,24.0,57,0.00,BKN,,0.00,330.0,WeatherDisplay:10.37,2013-02-20 16:00:00,
2013-02-20 11:05:00,27.5,13.4,29.94,WNW,303,20.7,20.7,55,0.00,BKN,,0.00,323.0,WeatherDisplay:10.37,2013-02-20 16:05:00,
2013-02-20 11:10:00,27.4,13.7,29.94,WNW,290,13.0,13.0,56,0.00,BKN,,0.00,332.0,WeatherDisplay:10.37,2013-02-20 16:10:00,
2013-02-20 11:15:00,27.8,14.5,29.94,NW,306,18.4,18.4,57,0.00,BKN,,0.00,432.0,WeatherDisplay:10.37,2013-02-20 16:15:00,
2013-02-20 11:20:00,28.4,15.5,29.94,West,266,11.5,11.5,58,0.00,BKN,,0.00,550.0,WeatherDisplay:10.37,2013-02-20 16:20:00,
2013-02-20 11:25:00,28.9,15.6,29.94,WNW,288,13.8,13.8,57,0.00,BKN,,0.00,701.0,WeatherDisplay:10.37,2013-02-20 16:25:00,
2013-02-20 11:30:00,28.9,14.7,29.94,WNW,286,24.2,24.2,55,0.00,BKN,,0.00,696.0,WeatherDisplay:10.37,2013-02-20 16:30:00,
2013-02-20 11:35:00,28.8,14.6,29.94,WNW,296,18.4,18.4,55,0.00,BKN,,0.00,668.0,WeatherDisplay:10.37,2013-02-20 16:35:00,
2013-02-20 11:40:00,29.0,14.8,29.94,WSW,258,18.4,18.4,55,0.00,BKN,,0.00,751.0,WeatherDisplay:10.37,2013-02-20 16:40:00,
2013-02-20 11:45:00,29.2,15.0,29.94,West,273,13.8,13.8,55,0.00,BKN,,0.00,854.0,WeatherDisplay:10.37,2013-02-20 16:45:00,
2013-02-20 11:50:00,28.7,14.1,29.93,NW,306,13.8,13.8,54,0.00,BKN,,0.00,758.0,WeatherDisplay:10.37,2013-02-20 16:50:00,
2013-02-20 11:55:00,28.3,14.2,29.93,WNW,302,9.2,9.2,55,0.00,BKN,,0.00,255.0,WeatherDisplay:10.37,2013-02-20 16:55:00,
2013-02-20 12:00:00,27.9,14.2,29.93,WNW,296,11.0,11.0,56,0.00,BKN,,0.00,274.0,WeatherDisplay:10.37,2013-02-20 17:00:00,
2013-02-20 12:05:00,28.2,14.5,29.93,NW,314,17.3,17.3,56,0.00,BKN,,0.00,262.0,WeatherDisplay:10.37,2013-02-20 17:05:00,
2013-02-20 12:10:00,28.2,14.1,29.93,WNW,300,13.0,13.0,55,0.00,BKN,,0.00,835.0,WeatherDisplay:10.37,2013-02-20 17:10:00,
2013-02-20 12:15:00,28.8,15.1,29.93,WNW,299,17.3,17.3,56,0.00,BKN,,0.00,809.0,WeatherDisplay:10.37,2013-02-20 17:15:00,
2013-02-20 12:20:00,29.4,15.6,29.93,West,280,16.0,16.0,56,0.00,BKN,,0.00,758.0,WeatherDisplay:10.37,2013-02-20 17:20:00,
2013-02-20 12:25:00,29.6,14.5,29.92,WNW,302,24.2,24.2,53,0.00,BKN,,0.00,703.0,WeatherDisplay:10.37,2013-02-20 17:25:00,
2013-02-20 12:30:00,29.7,15.1,29.93,WNW,295,16.1,16.1,54,0.00,BKN,,0.00,679.0,WeatherDisplay:10.37,2013-02-20 17:30:00,
2013-02-20 12:35:00,29.8,15.2,29.93,WNW,285,11.0,11.0,54,0.00,BKN,,0.00,751.0,WeatherDisplay:10.37,2013-02-20 17:35:00,
2013-02-20 12:40:00,29.9,15.7,29.93,WNW,284,12.7,12.7,55,0.00,BKN,,0.00,406.0,WeatherDisplay:10.37,2013-02-20 17:40:00,
2013-02-20 12:45:00,29.5,15.3,29.93,WNW,296,12.0,12.0,55,0.00,BKN,,0.00,698.0,WeatherDisplay:10.37,2013-02-20 17:45:00,
2013-02-20 12:50:00,28.9,15.2,29.93,WNW,292,18.4,18.4,56,0.00,BKN,,0.00,306.0,WeatherDisplay:10.37,2013-02-20 17:50:00,
2013-02-20 12:55:00,28.4,15.1,29.93,WNW,291,15.0,15.0,57,0.00,BKN,,0.00,230.0,WeatherDisplay:10.37,2013-02-20 17:55:00,
2013-02-20 13:00:00,27.8,14.9,29.93,West,272,16.1,16.1,58,0.00,OVC,,0.00,260.0,WeatherDisplay:10.37,2013-02-20 18:00:00,
2013-02-20 13:05:00,27.8,15.7,29.93,WNW,293,12.7,12.7,60,0.00,OVC,,0.00,246.0,WeatherDisplay:10.37,2013-02-20 18:05:00,
2013-02-20 13:10:00,27.8,15.3,29.93,WNW,298,15.0,15.0,59,0.00,OVC,,0.00,211.0,WeatherDisplay:10.37,2013-02-20 18:10:00,
2013-02-20 13:15:00,27.8,15.3,29.93,WNW,298,19.6,19.6,59,0.00,OVC,,0.00,255.0,WeatherDisplay:10.37,2013-02-20 18:15:00,
2013-02-20 13:20:00,28.0,15.1,29.93,WNW,284,19.6,19.6,58,0.00,OVC,,0.00,246.0,WeatherDisplay:10.37,2013-02-20 18:20:00,
2013-02-20 13:25:00,28.5,15.6,29.93,West,267,16.1,16.1,58,0.00,OVC,,0.00,239.0,WeatherDisplay:10.37,2013-02-20 18:25:00,
2013-02-20 13:30:00,28.4,15.1,29.93,WSW,246,11.5,11.5,57,0.00,OVC,,0.00,323.0,WeatherDisplay:10.37,2013-02-20 18:30:00,
2013-02-20 13:35:00,29.1,15.7,29.93,WNW,292,21.9,21.9,57,0.00,OVC,,0.00,353.0,WeatherDisplay:10.37,2013-02-20 18:35:00,
2013-02-20 13:40:00,29.2,15.4,29.93,WSW,249,13.8,13.8,56,0.00,OVC,,0.00,213.0,WeatherDisplay:10.37,2013-02-20 18:40:00,
2013-02-20 13:45:00,28.5,14.8,29.93,SW,235,17.3,17.3,56,0.00,OVC,,0.00,195.0,WeatherDisplay:10.37,2013-02-20 18:45:00,
2013-02-20 13:50:00,28.2,15.3,29.93,WNW,283,16.1,16.1,58,0.00,OVC,,0.00,250.0,WeatherDisplay:10.37,2013-02-20 18:50:00,
2013-02-20 13:55:00,28.4,15.5,29.93,WNW,298,21.9,21.9,58,0.00,OVC,,0.00,527.0,WeatherDisplay:10.37,2013-02-20 18:55:00,
2013-02-20 14:00:00,28.9,16.0,29.93,West,263,11.5,11.5,58,0.00,OVC,,0.00,642.0,WeatherDisplay:10.37,2013-02-20 19:00:00,
2013-02-20 14:05:00,29.7,16.3,29.93,WNW,288,15.0,15.0,57,0.00,OVC,,0.00,712.0,WeatherDisplay:10.37,2013-02-20 19:05:00,
2013-02-20 14:10:00,29.9,15.3,29.93,West,270,21.9,21.9,54,0.00,OVC,,0.00,733.0,WeatherDisplay:10.37,2013-02-20 19:10:00,
2013-02-20 14:15:00,30.0,14.9,29.93,WNW,295,15.0,15.0,53,0.00,OVC,,0.00,497.0,WeatherDisplay:10.37,2013-02-20 19:15:00,
2013-02-20 14:20:00,29.5,14.9,29.93,West,281,16.1,16.1,54,0.00,OVC,,0.00,341.0,WeatherDisplay:10.37,2013-02-20 19:20:00,
2013-02-20 14:25:00,29.2,15.8,29.93,WNW,302,18.4,18.4,57,0.00,OVC,,0.00,694.0,WeatherDisplay:10.37,2013-02-20 19:25:00,
2013-02-20 14:30:00,29.9,15.3,29.93,SW,234,16.1,16.1,54,0.00,OVC,,0.00,548.0,WeatherDisplay:10.37,2013-02-20 19:30:00,
2013-02-20 14:35:00,29.5,14.5,29.94,West,267,15.0,15.0,53,0.00,OVC,,0.00,396.0,WeatherDisplay:10.37,2013-02-20 19:35:00,
2013-02-20 14:40:00,29.6,15.0,29.94,WNW,302,18.4,18.4,54,0.00,OVC,,0.00,308.0,WeatherDisplay:10.37,2013-02-20 19:40:00,
2013-02-20 14:45:00,29.7,15.1,29.94,WNW,296,18.4,18.4,54,0.00,OVC,,0.00,587.0,WeatherDisplay:10.37,2013-02-20 19:45:00,
2013-02-20 14:50:00,30.1,15.4,29.95,West,273,12.7,12.7,54,0.00,OVC,,0.00,341.0,WeatherDisplay:10.37,2013-02-20 19:50:00,
2013-02-20 14:55:00,29.5,14.9,29.95,West,266,11.5,11.5,54,0.00,OVC,,0.00,294.0,WeatherDisplay:10.37,2013-02-20 19:55:00,
2013-02-20 15:00:00,29.1,14.9,29.95,WNW,301,12.7,12.7,55,0.00,BKN,,0.00,209.0,WeatherDisplay:10.37,2013-02-20 20:00:00,
2013-02-20 15:05:00,28.7,15.0,29.96,West,279,11.5,11.5,56,0.00,BKN,,0.00,209.0,WeatherDisplay:10.37,2013-02-20 20:05:00,
2013-02-20 15:10:00,28.4,15.1,29.95,West,265,19.6,19.6,57,0.00,BKN,,0.00,190.0,WeatherDisplay:10.37,2013-02-20 20:10:00,
2013-02-20 15:15:00,28.1,14.4,29.95,NW,324,18.4,18.4,56,0.00,BKN,,0.00,139.0,WeatherDisplay:10.37,2013-02-20 20:15:00,
2013-02-20 15:20:00,27.8,14.5,29.96,NW,304,17.3,17.3,57,0.00,BKN,,0.00,120.0,WeatherDisplay:10.37,2013-02-20 20:20:00,
2013-02-20 15:25:00,27.6,15.1,29.96,NW,304,19.6,19.6,59,0.00,BKN,,0.00,176.0,WeatherDisplay:10.37,2013-02-20 20:25:00,
2013-02-20 15:30:00,27.6,15.5,29.96,WNW,299,13.8,13.8,60,0.00,BKN,,0.00,255.0,WeatherDisplay:10.37,2013-02-20 20:30:00,
2013-02-20 15:35:00,28.0,15.5,29.96,WNW,301,15.0,15.0,59,0.00,BKN,,0.00,318.0,WeatherDisplay:10.37,2013-02-20 20:35:00,
2013-02-20 15:40:00,28.5,16.0,29.96,WNW,288,16.1,16.1,59,0.00,BKN,,0.00,378.0,WeatherDisplay:10.37,2013-02-20 20:40:00,
2013-02-20 15:45:00,28.5,16.0,29.96,West,280,15.0,15.0,59,0.00,BKN,,0.00,301.0,WeatherDisplay:10.37,2013-02-20 20:45:00,
2013-02-20 15:50:00,28.1,16.0,29.96,WNW,296,15.0,15.0,60,0.00,BKN,,0.00,236.0,WeatherDisplay:10.37,2013-02-20 20:50:00,
2013-02-20 15:55:00,27.8,15.7,29.97,WSW,257,11.5,11.5,60,0.00,BKN,,0.00,146.0,WeatherDisplay:10.37,2013-02-20 20:55:00,
2013-02-20 16:00:00,27.4,15.7,29.98,WNW,290,13.8,13.8,61,0.00,BKN,,0.00,130.0,WeatherDisplay:10.37,2013-02-20 21:00:00,
2013-02-20 16:05:00,27.1,15.4,29.98,WNW,292,13.8,13.8,61,0.00,BKN,,0.00,109.0,WeatherDisplay:10.37,2013-02-20 21:05:00,
2013-02-20 16:10:00,27.1,15.4,29.98,WNW,300,11.0,11.0,61,0.00,BKN,,0.00,100.0,WeatherDisplay:10.37,2013-02-20 21:10:00,
2013-02-20 16:15:00,27.3,15.2,29.98,West,277,18.4,18.4,60,0.00,BKN,,0.00,105.0,WeatherDisplay:10.37,2013-02-20 21:15:00,
2013-02-20 16:20:00,27.5,15.4,29.98,WNW,290,13.8,13.8,60,0.00,BKN,,0.00,139.0,WeatherDisplay:10.37,2013-02-20 21:20:00,
2013-02-20 16:25:00,27.5,15.8,29.98,WNW,300,13.8,13.8,61,0.00,BKN,,0.00,97.0,WeatherDisplay:10.37,2013-02-20 21:25:00,
2013-02-20 16:30:00,27.2,15.5,29.98,West,278,19.6,19.6,61,0.00,BKN,,0.00,83.0,WeatherDisplay:10.37,2013-02-20 21:30:00,
2013-02-20 16:35:00,26.9,14.9,29.98,WNW,298,17.3,17.3,60,0.00,BKN,,0.00,72.0,WeatherDisplay:10.37,2013-02-20 21:35:00,
2013-02-20 16:40:00,26.9,14.5,29.98,NW,306,17.3,17.3,59,0.00,BKN,,0.00,84.0,WeatherDisplay:10.37,2013-02-20 21:40:00,
2013-02-20 16:45:00,26.8,14.4,29.98,West,280,15.0,15.0,59,0.00,BKN,,0.00,74.0,WeatherDisplay:10.37,2013-02-20 21:45:00,
2013-02-20 16:50:00,26.9,14.9,29.98,WNW,295,9.2,9.2,60,0.00,BKN,,0.00,53.0,WeatherDisplay:10.37,2013-02-20 21:50:00,
2013-02-20 16:55:00,26.8,14.8,29.99,WNW,300,12.7,12.7,60,0.00,BKN,,0.00,30.0,WeatherDisplay:10.37,2013-02-20 21:55:00,
2013-02-20 17:00:00,26.8,14.0,29.99,WNW,290,17.3,17.3,58,0.00,OVC,,0.00,39.0,WeatherDisplay:10.37,2013-02-20 22:00:00,
2013-02-20 17:05:00,26.8,14.0,29.99,WNW,303,20.7,20.7,58,0.00,OVC,,0.00,44.0,WeatherDisplay:10.37,2013-02-20 22:05:00,
2013-02-20 17:10:00,26.7,14.3,29.99,WNW,298,18.4,18.4,59,0.00,OVC,,0.00,32.0,WeatherDisplay:10.37,2013-02-20 22:10:00,
2013-02-20 17:15:00,26.7,13.9,30.00,WNW,288,11.5,11.5,58,0.00,OVC,,0.00,32.0,WeatherDisplay:10.37,2013-02-20 22:15:00,
2013-02-20 17:20:00,26.7,13.5,30.00,WNW,303,19.6,19.6,57,0.00,OVC,,0.00,21.0,WeatherDisplay:10.37,2013-02-20 22:20:00,
2013-02-20 17:25:00,26.6,13.8,30.00,WNW,292,12.0,12.0,58,0.00,OVC,,0.00,23.0,WeatherDisplay:10.37,2013-02-20 22:25:00,
2013-02-20 17:30:00,26.6,13.8,30.00,WNW,285,11.5,11.5,58,0.00,OVC,,0.00,12.0,WeatherDisplay:10.37,2013-02-20 22:30:00,
2013-02-20 17:35:00,26.5,13.7,29.99,SW,228,16.1,16.1,58,0.00,OVC,,0.00,9.0,WeatherDisplay:10.37,2013-02-20 22:35:00,
2013-02-20 17:40:00,26.4,13.6,29.99,NW,307,11.5,11.5,58,0.00,OVC,,0.00,7.0,WeatherDisplay:10.37,2013-02-20 22:40:00,
2013-02-20 17:45:00,26.3,13.5,29.99,West,259,10.4,10.4,58,0.00,OVC,,0.00,5.0,WeatherDisplay:10.37,2013-02-20 22:45:00,
2013-02-20 17:50:00,26.2,13.4,29.99,NW,312,11.5,11.5,58,0.00,OVC,,0.00,0.0,WeatherDisplay:10.37,2013-02-20 22:50:00,
2013-02-20 17:55:00,26.2,13.4,29.99,WNW,292,15.0,15.0,58,0.00,OVC,,0.00,0.0,WeatherDisplay:10.37,2013-02-20 22:55:00,
2013-02-20 18:00:00,26.1,13.3,30.00,NW,307,17.3,17.3,58,0.00,BKN,,0.00,0.0,WeatherDisplay:10.37,2013-02-20 23:00:00,
2013-02-20 18:05:00,26.0,13.2,30.01,WNW,302,12.0,12.0,58,0.00,BKN,,0.00,0.0,WeatherDisplay:10.37,2013-02-20 23:05:00,
2013-02-20 18:10:00,26.0,13.2,30.01,WNW,286,12.0,12.0,58,0.00,BKN,,0.00,0.0,WeatherDisplay:10.37,2013-02-20 23:10:00,
2013-02-20 18:15:00,25.8,13.4,30.01,WNW,293,15.0,15.0,59,0.00,BKN,,0.00,0.0,WeatherDisplay:10.37,2013-02-20 23:15:00,
2013-02-20 18:20:00,25.8,13.4,30.01,West,267,16.1,16.1,59,0.00,BKN,,0.00,0.0,WeatherDisplay:10.37,2013-02-20 23:20:00,
2013-02-20 18:25:00,25.8,13.8,30.01,WNW,284,7.0,7.0,60,0.00,BKN,,0.00,0.0,WeatherDisplay:10.37,2013-02-20 23:25:00,
2013-02-20 18:30:00,25.7,14.1,30.01,West,279,8.1,8.1,61,0.00,BKN,,0.00,0.0,WeatherDisplay:10.37,2013-02-20 23:30:00,
2013-02-20 18:35:00,25.6,14.4,30.01,WNW,296,11.5,11.5,62,0.00,BKN,,0.00,0.0,WeatherDisplay:10.37,2013-02-20 23:35:00,
2013-02-20 18:40:00,25.6,14.4,30.01,West,276,11.5,11.5,62,0.00,BKN,,0.00,0.0,WeatherDisplay:10.37,2013-02-20 23:40:00,
2013-02-20 18:45:00,25.5,14.3,30.01,West,270,9.2,9.2,62,0.00,BKN,,0.00,0.0,WeatherDisplay:10.37,2013-02-20 23:45:00,
2013-02-20 18:50:00,25.4,14.2,30.01,West,265,11.5,11.5,62,0.00,BKN,,0.00,0.0,WeatherDisplay:10.37,2013-02-20 23:50:00,
2013-02-20 18:56:00,25.4,14.2,30.01,West,265,11.5,11.5,62,0.00,BKN,,0.00,0.0,WeatherDisplay:10.37,2013-02-20 23:56:00,
2013-02-20 19:01:00,25.4,13.8,30.02,WNW,298,19.6,19.6,61,0.00,FEW,,0.00,0.0,WeatherDisplay:10.37,2013-02-21 00:01:00,
2013-02-20 19:06:00,25.5,13.9,30.01,WNW,300,15.0,15.0,61,0.00,FEW,,0.00,0.0,WeatherDisplay:10.37,2013-02-21 00:06:00,
2013-02-20 19:11:00,25.6,13.2,30.01,WNW,300,16.1,16.1,59,0.00,FEW,,0.00,0.0,WeatherDisplay:10.37,2013-02-21 00:11:00,
2013-02-20 19:16:00,25.7,13.3,30.02,WNW,292,13.8,13.8,59,0.00,FEW,,0.00,0.0,WeatherDisplay:10.37,2013-02-21 00:16:00,
2013-02-20 19:21:00,25.6,12.9,30.02,WNW,295,11.5,11.5,58,0.00,FEW,,0.00,0.0,WeatherDisplay:10.37,2013-02-21 00:21:00,
2013-02-20 19:26:00,25.5,13.5,30.02,WNW,285,11.5,11.5,60,0.00,FEW,,0.00,0.0,WeatherDisplay:10.37,2013-02-21 00:26:00,
2013-02-20 19:31:00,25.4,13.8,30.02,NW,321,10.4,10.4,61,0.00,FEW,,0.00,0.0,WeatherDisplay:10.37,2013-02-21 00:31:00,
2013-02-20 19:36:00,25.3,13.7,30.02,WNW,296,13.8,13.8,61,0.00,FEW,,0.00,0.0,WeatherDisplay:10.37,2013-02-21 00:36:00,
2013-02-20 19:41:00,25.3,13.3,30.03,WNW,294,13.8,13.8,60,0.00,FEW,,0.00,0.0,WeatherDisplay:10.37,2013-02-21 00:41:00,
2013-02-20 19:46:00,25.4,13.1,30.03,WNW,298,16.1,16.1,59,0.00,FEW,,0.00,0.0,WeatherDisplay:10.37,2013-02-21 00:46:00,
2013-02-20 19:51:00,25.4,13.1,30.03,NW,309,18.4,18.4,59,0.00,FEW,,0.00,0.0,WeatherDisplay:10.37,2013-02-21 00:51:00,
2013-02-20 19:56:00,25.4,13.1,30.03,NW,313,17.0,17.0,59,0.00,FEW,,0.00,0.0,WeatherDisplay:10.37,2013-02-21 00:56:00,
2013-02-20 20:01:00,25.3,13.0,30.03,NW,306,17.3,17.3,59,0.00,CLR,,0.00,0.0,WeatherDisplay:10.37,2013-02-21 01:01:00,
2013-02-20 20:06:00,25.2,14.7,30.04,WNW,287,12.7,12.7,64,0.00,CLR,,0.00,0.0,WeatherDisplay:10.37,2013-02-21 01:06:00,
2013-02-20 20:11:00,25.1,13.2,30.03,WNW,286,11.5,11.5,60,0.00,CLR,,0.00,0.0,WeatherDisplay:10.37,2013-02-21 01:11:00,
2013-02-20 20:16:00,25.0,13.4,30.02,West,275,15.0,15.0,61,0.00,CLR,,0.00,0.0,WeatherDisplay:10.37,2013-02-21 01:16:00,
2013-02-20 20:21:00,24.9,13.0,30.03,WNW,294,16.0,16.0,60,0.00,CLR,,0.00,0.0,WeatherDisplay:10.37,2013-02-21 01:21:00,
2013-02-20 20:26:00,24.8,12.9,30.03,WNW,290,12.7,12.7,60,0.00,CLR,,0.00,0.0,WeatherDisplay:10.37,2013-02-21 01:26:00,
2013-02-20 20:31:00,24.8,12.9,30.03,WNW,290,17.3,17.3,60,0.00,CLR,,0.00,0.0,WeatherDisplay:10.37,2013-02-21 01:31:00,
2013-02-20 20:36:00,24.7,12.8,30.04,WNW,303,9.2,9.9,60,0.00,CLR,,0.00,0.0,WeatherDisplay:10.37,2013-02-21 01:36:00,
2013-02-20 20:41:00,24.5,13.0,30.03,West,279,12.0,12.0,61,0.00,CLR,,0.00,0.0,WeatherDisplay:10.37,2013-02-21 01:41:00,
2013-02-20 20:46:00,24.4,12.5,30.03,West,275,12.7,12.7,60,0.00,CLR,,0.00,0.0,WeatherDisplay:10.37,2013-02-21 01:46:00,
2013-02-20 20:51:00,24.4,12.5,30.04,WNW,300,11.5,11.5,60,0.00,CLR,,0.00,0.0,WeatherDisplay:10.37,2013-02-21 01:51:00,
2013-02-20 20:56:00,24.3,12.4,30.04,WNW,302,15.0,15.0,60,0.00,CLR,,0.00,0.0,WeatherDisplay:10.37,2013-02-21 01:56:00,
2013-02-20 21:01:00,24.3,12.0,30.04,WNW,293,13.8,13.8,59,0.00,CLR,,0.00,0.0,WeatherDisplay:10.37,2013-02-21 02:01:00,
2013-02-20 21:06:00,24.2,12.3,30.04,NW,305,12.7,12.7,60,0.00,CLR,,0.00,0.0,WeatherDisplay:10.37,2013-02-21 02:06:00,
2013-02-20 21:11:00,24.1,12.2,30.03,WNW,303,11.5,11.5,60,0.00,CLR,,0.00,0.0,WeatherDisplay:10.37,2013-02-21 02:11:00,
2013-02-20 21:16:00,23.9,12.0,30.03,WNW,290,12.7,12.7,60,0.00,CLR,,0.00,0.0,WeatherDisplay:10.37,2013-02-21 02:16:00,
2013-02-20 21:21:00,23.9,12.4,30.03,NW,315,12.7,12.7,61,0.00,CLR,,0.00,0.0,WeatherDisplay:10.37,2013-02-21 02:21:00,
2013-02-20 21:26:00,23.9,12.0,30.03,West,279,15.0,15.0,60,0.00,CLR,,0.00,0.0,WeatherDisplay:10.37,2013-02-21 02:26:00,
2013-02-20 21:31:00,23.8,11.9,30.03,West,279,6.9,6.9,60,0.00,CLR,,0.00,0.0,WeatherDisplay:10.37,2013-02-21 02:31:00,
2013-02-20 21:36:00,23.7,11.8,30.03,WNW,292,9.2,9.2,60,0.00,CLR,,0.00,0.0,WeatherDisplay:10.37,2013-02-21 02:36:00,
2013-02-20 21:41:00,23.6,12.1,30.04,WNW,290,8.1,8.1,61,0.00,CLR,,0.00,0.0,WeatherDisplay:10.37,2013-02-21 02:41:00,
2013-02-20 21:46:00,23.6,12.1,30.04,WNW,291,8.1,8.1,61,0.00,CLR,,0.00,0.0,WeatherDisplay:10.37,2013-02-21 02:46:00,
2013-02-20 21:51:00,23.5,12.0,30.04,West,278,8.1,8.1,61,0.00,CLR,,0.00,0.0,WeatherDisplay:10.37,2013-02-21 02:51:00,
2013-02-20 21:56:00,23.4,11.9,30.04,WNW,302,11.5,11.5,61,0.00,CLR,,0.00,0.0,WeatherDisplay:10.37,2013-02-21 02:56:00,
2013-02-20 22:01:00,23.5,12.0,30.04,WNW,296,12.7,12.7,61,0.00,CLR,,0.00,0.0,WeatherDisplay:10.37,2013-02-21 03:01:00,
2013-02-20 22:06:00,23.5,12.0,30.06,WNW,284,10.4,10.4,61,0.00,CLR,,0.00,0.0,WeatherDisplay:10.37,2013-02-21 03:06:00,
2013-02-20 22:11:00,23.5,11.6,30.06,WNW,291,11.5,11.5,60,0.00,CLR,,0.00,0.0,WeatherDisplay:10.37,2013-02-21 03:11:00,
2013-02-20 22:16:00,23.5,11.6,30.05,WNW,294,16.1,16.1,60,0.00,CLR,,0.00,0.0,WeatherDisplay:10.37,2013-02-21 03:16:00,
2013-02-20 22:21:00,23.4,11.9,30.05,WNW,284,12.7,12.7,61,0.00,CLR,,0.00,0.0,WeatherDisplay:10.37,2013-02-21 03:21:00,
2013-02-20 22:26:00,23.4,11.9,30.05,WNW,288,11.5,11.5,61,0.00,CLR,,0.00,0.0,WeatherDisplay:10.37,2013-02-21 03:26:00,
2013-02-20 22:31:00,23.3,11.8,30.06,WNW,287,11.5,11.5,61,0.00,CLR,,0.00,0.0,WeatherDisplay:10.37,2013-02-21 03:31:00,
2013-02-20 22:36:00,23.3,12.2,30.06,NW,306,8.1,8.1,62,0.00,CLR,,0.00,0.0,WeatherDisplay:10.37,2013-02-21 03:36:00,
2013-02-20 22:41:00,23.1,12.0,30.06,West,277,12.7,12.7,62,0.00,CLR,,0.00,0.0,WeatherDisplay:10.37,2013-02-21 03:41:00,
2013-02-20 22:46:00,23.2,12.1,30.06,WNW,294,11.5,11.5,62,0.00,CLR,,0.00,0.0,WeatherDisplay:10.37,2013-02-21 03:46:00,
2013-02-20 22:51:00,23.1,12.4,30.06,NW,310,9.0,9.0,63,0.00,CLR,,0.00,0.0,WeatherDisplay:10.37,2013-02-21 03:51:00,
2013-02-20 22:56:00,23.1,12.4,30.06,West,277,10.4,10.4,63,0.00,CLR,,0.00,0.0,WeatherDisplay:10.37,2013-02-21 03:56:00,
2013-02-20 23:01:00,23.0,12.3,30.06,WNW,298,11.5,11.5,63,0.00,CLR,,0.00,0.0,WeatherDisplay:10.37,2013-02-21 04:01:00,
2013-02-20 23:06:00,23.1,12.0,30.06,WNW,284,17.3,17.3,62,0.00,CLR,,0.00,0.0,WeatherDisplay:10.37,2013-02-21 04:06:00,
2013-02-20 23:11:00,23.1,12.4,30.06,NW,306,13.8,13.8,63,0.00,CLR,,0.00,0.0,WeatherDisplay:10.37,2013-02-21 04:11:00,
2013-02-20 23:16:00,23.0,12.3,30.05,WNW,298,12.7,12.7,63,0.00,CLR,,0.00,0.0,WeatherDisplay:10.37,2013-02-21 04:16:00,
2013-02-20 23:21:00,23.0,12.3,30.06,WNW,298,17.3,17.3,63,0.00,CLR,,0.00,0.0,WeatherDisplay:10.37,2013-02-21 04:21:00,
2013-02-20 23:26:00,22.9,12.2,30.06,NW,304,10.4,10.4,63,0.00,CLR,,0.00,0.0,WeatherDisplay:10.37,2013-02-21 04:26:00,
2013-02-20 23:31:00,22.7,12.0,30.06,NW,305,12.0,12.0,63,0.00,CLR,,0.00,0.0,WeatherDisplay:10.37,2013-02-21 04:31:00,
2013-02-20 23:36:00,22.7,12.3,30.05,NW,315,13.8,13.8,64,0.00,CLR,,0.00,0.0,WeatherDisplay:10.37,2013-02-21 04:36:00,
2013-02-20 23:41:00,22.7,12.0,30.06,WNW,294,9.2,9.2,63,0.00,CLR,,0.00,0.0,WeatherDisplay:10.37,2013-02-21 04:41:00,
2013-02-20 23:46:00,22.7,12.0,30.06,NW,306,10.4,10.4,63,0.00,CLR,,0.00,0.0,WeatherDisplay:10.37,2013-02-21 04:46:00,
2013-02-20 23:51:00,22.6,12.2,30.06,WNW,291,8.1,8.1,64,0.00,CLR,,0.00,0.0,WeatherDisplay:10.37,2013-02-21 04:51:00,
2013-02-20 23:56:00,22.6,12.2,30.06,WNW,294,11.5,11.5,64,0.00,CLR,,0.00,0.0,WeatherDisplay:10.37,2013-02-21 04:56:00,